Flag for Jamaica Weather past 2 weeks in May Pen, Jamaica

Now
81 °F

Passing clouds.


Feels Like: 85 °F
Forecast: 72 / 94 °F
Wind: 6 mph from Northwest

Location: Kingston / Norman Manley

Current Time: Sep 5, 2015 at 5:49:53 AM

Latest Report: Sep 5, 2015 at 5:00 AM


Visibility: N/A

Pressure: 29.92 "Hg

Humidity: 74%

Dew point: 72 °F

Location of May PenLocation

Historic Weather in May Pen — Graph

°F

May Pen temperature yesterday

Maximum temperature yesterday: 90 °F (at 10:00 AM)
Minimum temperature yesterday: 82 °F (at 2:00 AM)
Average temperature yesterday: 86 °F

Past Weeks' High & Low Weather Summary

 TemperatureHumidityPressure
High93 °F (Aug 30, 1:00 PM)89% (Aug 24, 7:00 AM)30.01 "Hg (Aug 24, 7:00 AM)
Low81 °F (Aug 24, 5:00 AM)59% (Aug 31, 11:00 AM)29.80 "Hg (Aug 28, 2:00 PM)
Average86 °F72%29.91 "Hg
* Reported Aug 21 4:00 AM — Sep 5 4:00 AM, May Pen, Weather by CustomWeather, © 2015

Note: Actual official high and low records may vary slightly from our data, if they occured in-between our weather recording intervals... More about our weather records

Advertising

May Pen weather history for previous 24 hours

 ConditionsComfort  
Time TempWeatherWind HumidityBarometerVisibility
4:00 AM
Sat, Sep 5
81 °FPassing clouds.3 mph70%29.89 "HgN/A
3:00 AM82 °FPassing clouds.6 mph70%29.89 "HgN/A
2:00 AM81 °FPassing clouds.6 mph79%29.89 "HgN/A
1:00 AM82 °FPassing clouds.5 mph79%29.92 "HgN/A
12:00 AM82 °FPassing clouds.5 mph74%29.95 "HgN/A
11:00 PM
Fri, Sep 4
84 °FPassing clouds.5 mph74%29.95 "HgN/A
10:00 PM84 °FPassing clouds.6 mph74%29.95 "HgN/A
9:00 PM86 °FPassing clouds.7 mph70%29.92 "HgN/A
8:00 PM86 °FPassing clouds.16 mph62%29.92 "HgN/A
7:00 PM86 °FPassing clouds.17 mph66%29.89 "HgN/A
6:00 PM88 °FPassing clouds.23 mph62%29.86 "HgN/A
5:00 PM88 °FPassing clouds.24 mph70%29.86 "HgN/A
4:00 PM90 °FPassing clouds.25 mph63%29.86 "HgN/A
3:00 PM90 °FPassing clouds.25 mph63%29.86 "HgN/A
2:00 PM90 °FPassing clouds.24 mph67%29.89 "HgN/A
1:00 PM90 °FPassing clouds.24 mph67%29.92 "HgN/A
12:00 PM88 °FPassing clouds.25 mph70%29.95 "HgN/A
11:00 AM90 °FPassing clouds.20 mph67%29.95 "HgN/A
10:00 AM90 °FPassing clouds.17 mph67%29.98 "HgN/A
9:00 AM84 °FPassing clouds.6 mph70%29.98 "HgN/A
8:00 AM84 °FPassing clouds.3 mph70%29.95 "HgN/A
7:00 AM82 °FPassing clouds.9 mph74%29.92 "HgN/A
6:00 AM82 °FPassing clouds.7 mph70%29.92 "HgN/A
5:00 AM82 °FPassing clouds.6 mph74%29.89 "HgN/A
Weather by CustomWeather, © 2015

See weather overviewHow to use our weather pages